Terug naar catalogus

YAOGAN-40 02A

ActiefMilitairPO
NORAD 63918·PAYLOAD·🇨🇳 China

Gelanceerd May 11, 2025 vanaf Taiyuan Satellite Launch Center

Loading…

Volgende Passages (komende 24 uur)

TLE

VersSource: Space-Track

Epoch: Sep 14, 2026, 13:01 UTC

1 63918U 25096A   26257.54237663  .00000100  00000-0  43931-4 0  9992
2 63918  85.9984 147.9614 0002072  96.7604 263.3815 14.12461715 69181

Volg YAOGAN-40 02A in realtime met AllMySat

Download on the App Store